RH
19 24 23 17 18 16 16 23 24 19 15 14 18 19 20 16 19 37 49 53 54 57 57 59 62 65 67 71 72 73 82 73 68 60 56 55 51 47 49 56 57 57 58 59
25 24 18 16 20 25 22 26 25 21 20 16 23 22 22 28 40 48 51 52 52 53 55 54 52 52 55 55 55 54 54 52 48 46 46 46 48 50 56 58 59 59 59 58
28 18 14 24 27 27 35 32 29 25 23 22 24 27 35 37 41 45 47 45 42 42 45 46 46 48 51 48 45 43 47 50 49 49 50 50 49 48 50 51 52 51 56 59
21 16 24 28 27 26 38 28 27 26 31 29 22 40 30 38 41 40 47 48 46 44 43 41 40 40 38 39 40 40 41 45 48 53 53 52 52 53 54 60 64 67 70 72
24 29 31 31 25 23 30 25 27 27 33 37 38 41 33 38 47 47 47 50 49 45 42 42 41 43 46 47 48 48 45 46 47 53 57 60 62 64 68 71 74 76 72 61
24 24 25 25 25 22 22 29 44 40 45 62 47 44 44 43 43 44 44 49 47 44 44 42 44 46 48 50 52 56 57 56 59 59 58 58 61 67 72 72 70 66 61 44
31 31 26 24 32 29 31 49 70 68 78 69 51 57 53 45 38 40 48 46 45 44 41 42 44 47 49 54 56 58 59 62 64 63 61 61 62 64 66 67 64 57 46 48
45 48 32 28 28 30 34 44 73 65 71 63 42 55 52 44 43 41 40 40 40 41 42 45 50 56 55 54 55 56 57 59 60 61 61 61 62 62 61 56 50 39 47 58
47 40 28 25 25 30 34 41 36 62 68 77 57 45 36 39 42 40 40 41 41 46 45 49 54 54 56 56 56 57 58 59 59 58 59 60 59 57 55 53 41 40 47 62
33 43 28 25 28 29 26 28 52 67 58 54 51 52 62 51 47 43 41 45 46 47 49 50 52 54 56 57 57 57 57 56 55 56 56 53 48 54 59 54 50 49 51 62
37 43 39 34 33 35 38 42 44 47 68 72 79 55 38 48 52 50 50 48 48 49 53 55 57 58 58 57 53 55 54 52 50 46 45 48 49 52 55 54 58 58 60 62
36 51 58 39 27 26 28 36 47 71 46 81 81 58 42 48 43 39 49 49 50 52 59 60 60 59 55 48 45 43 44 43 44 44 42 46 50 54 56 60 67 63 62 66
38 47 70 57 49 40 32 30 51 61 71 58 71 59 41 46 50 49 52 51 55 58 57 56 57 57 51 48 46 45 45 42 38 40 44 56 57 56 62 63 67 70 77 92
47 49 51 66 49 38 28 28 44 55 80 68 70 50 46 57 63 58 55 56 57 57 60 61 57 48 54 50 47 47 43 39 38 38 45 49 40 42 60 73 78 83 75 92
50 56 49 42 42 35 32 34 35 38 47 58 49 56 63 68 68 59 59 59 62 66 64 54 44 51 52 46 40 40 39 39 40 40 41 38 37 46 44 61 69 64 70 90
61 71 48 41 58 59 40 42 48 46 37 40 57 67 60 60 56 60 64 66 69 66 58 49 48 48 40 49 41 41 41 41 41 39 37 36 39 38 46 54 52 61 89 100
68 74 71 61 77 67 69 51 42 36 41 40 51 58 64 64 66 69 71 69 68 64 54 46 41 35 37 37 40 39 38 37 38 40 42 44 43 46 52 52 65 97 100 94
74 92 93 74 70 40 41 43 38 45 48 64 66 68 64 62 66 72 71 66 56 48 42 36 35 33 32 33 33 35 37 41 42 44 46 46 51 57 53 71 77 97 97 87
65 87 98 69 86 48 43 48 48 45 54 66 70 71 68 71 72 72 69 54 54 50 37 35 31 30 31 32 36 36 41 42 45 47 53 59 64 54 65 80 71 77 84 85
80 78 76 98 61 52 42 47 40 42 77 67 68 75 72 67 84 75 63 58 50 38 35 32 31 32 33 35 36 36 42 47 50 55 64 68 61 65 81 94 92 99 92 91
95 94 95 99 90 78 55 46 40 72 61 70 68 72 72 75 60 63 62 56 38 37 33 32 34 36 39 40 40 42 48 52 58 68 70 68 74 73 84 93 97 85 81 81
86 94 98 98 98 77 48 50 59 57 64 67 72 73 66 60 65 66 44 40 37 34 34 36 40 42 44 46 48 50 54 60 68 70 71 74 71 75 78 82 80 74 75 79
61 67 81 76 77 47 42 42 39 44 53 71 72 70 64 61 64 49 42 36 35 36 38 41 41 44 47 52 57 62 66 71 71 73 78 82 76 79 93 93 92 90 86 86
58 57 85 72 56 56 46 49 47 55 55 71 73 65 65 71 50 41 36 35 36 38 39 39 42 44 50 58 67 74 79 77 82 82 88 93 71 61 71 90 92 92 94 89
56 60 64 76 60 64 64 61 60 70 73 72 71 71 74 51 40 36 35 36 38 37 38 38 33 37 44 51 61 67 71 86 99 99 98 90 72 56 72 93 97 96 91 83
60 60 79 82 48 52 59 69 76 76 77 77 70 61 41 41 36 36 36 36 36 36 31 28 34 39 41 52 61 76 90 100 100 100 99 97 77 72 92 99 99 97 90 92
Wind_Speed
6 5 3 6 5 4 5 5 7 2 1 4 5 3 3 8 10 24 30 33 36 36 32 30 30 27 24 21 20 15 14 15 15 14 12 9 9 4 2 3 3 7 10 13
6 3 5 5 6 7 5 8 4 5 7 4 6 5 5 9 12 29 35 35 36 31 27 23 19 18 17 18 16 15 13 11 9 5 4 2 0 3 5 8 10 13 17 21
6 4 2 6 6 7 5 5 3 2 3 3 8 5 6 9 24 24 27 30 28 26 25 21 17 14 12 10 9 10 11 10 8 4 1 3 6 10 14 18 21 24 26 27
4 5 7 6 5 1 2 3 3 2 4 2 3 1 5 6 9 11 19 28 28 26 22 18 15 12 8 8 7 6 7 9 10 10 12 14 15 17 22 22 20 20 22 25
2 5 7 6 0 1 3 2 1 1 3 4 6 6 4 6 10 9 16 27 25 22 18 16 12 10 8 6 6 8 10 11 12 15 15 14 15 16 16 15 18 21 27 30
4 4 3 2 3 0 1 2 7 4 3 3 5 5 4 4 7 8 11 24 24 18 15 12 9 6 5 4 4 2 4 6 9 12 15 15 16 16 18 20 24 27 30 31
5 3 4 4 4 6 7 5 3 4 4 3 5 5 2 6 8 11 15 21 21 18 11 8 7 5 3 3 2 2 7 9 9 11 14 15 16 16 18 17 21 28 28 27
4 3 4 6 2 1 3 5 5 4 2 3 5 3 1 5 24 25 23 19 14 14 13 12 12 11 8 5 1 4 10 14 17 20 21 20 20 22 23 27 31 32 30 27
4 1 1 1 1 2 3 4 4 6 3 3 1 3 2 6 10 18 8 9 12 10 12 14 18 13 9 4 5 7 9 12 15 18 18 18 21 26 30 31 30 31 29 26
3 4 2 2 5 7 5 2 4 4 2 1 3 2 4 5 6 6 9 14 16 18 16 13 10 6 4 6 8 12 14 14 12 12 16 21 27 29 31 33 31 32 31 28
2 4 4 4 2 1 4 3 5 4 3 4 2 4 4 7 5 8 16 21 18 16 13 9 6 3 4 8 15 13 11 7 11 18 23 25 29 32 30 27 27 30 31 30
2 5 3 1 3 2 2 3 4 4 2 2 3 4 4 10 16 20 22 19 15 14 13 11 3 6 12 14 12 12 10 14 19 22 25 28 29 27 33 33 32 32 32 32
2 2 3 6 6 5 3 1 5 6 3 5 5 5 9 6 10 15 17 17 16 13 7 2 5 12 14 11 9 8 12 15 18 20 21 20 24 28 32 32 31 32 30 19
2 3 5 6 4 3 3 2 4 5 3 3 6 6 4 5 11 15 15 13 13 6 2 6 11 11 7 8 11 16 18 20 23 24 17 20 28 29 26 23 23 29 35 38
3 3 1 2 4 2 1 2 2 4 5 5 6 6 4 5 7 10 11 12 7 3 6 11 10 8 8 11 16 14 17 19 19 20 25 29 29 26 33 25 26 28 29 24
4 1 2 1 5 6 3 5 5 4 3 4 6 3 5 13 8 9 11 8 5 5 9 6 6 8 10 14 14 14 13 17 24 28 29 28 28 33 33 34 36 32 26 22
3 4 3 3 4 5 5 6 3 1 3 4 5 5 9 4 8 11 9 5 2 5 4 7 9 11 11 11 10 15 20 25 25 24 23 24 31 33 37 40 29 24 23 10
4 4 3 2 3 1 5 5 5 6 3 8 9 7 9 8 9 10 6 1 2 2 6 8 10 10 10 12 16 19 22 18 19 21 25 30 33 37 39 26 19 15 10 9
4 5 3 3 3 5 2 4 5 6 5 5 9 10 9 16 12 5 1 2 1 4 7 7 10 11 13 15 18 22 20 20 21 26 29 30 33 33 22 11 10 10 6 6
6 6 4 3 4 6 5 3 10 8 4 11 13 14 11 12 2 4 1 1 1 4 3 7 11 15 19 22 25 27 23 19 25 28 27 32 28 22 13 12 8 9 6 9
2 3 4 2 2 7 7 5 8 5 7 16 17 16 13 5 5 4 3 2 1 2 7 12 17 20 21 25 27 23 18 24 27 26 30 25 21 18 11 11 10 9 9 6
7 7 4 3 2 8 14 6 7 6 13 15 15 13 8 5 6 3 4 1 1 5 10 14 16 19 21 20 20 23 26 27 29 31 27 22 23 15 12 10 10 7 7 12
2 7 5 9 6 6 16 9 18 11 13 16 17 12 7 9 7 6 3 1 4 8 12 14 18 19 17 21 24 25 27 30 32 28 26 23 16 11 10 10 12 13 14 15
4 8 3 3 6 15 13 12 13 15 14 15 11 8 8 6 6 6 2 4 9 12 17 20 21 22 22 23 25 27 29 31 24 25 26 23 17 15 14 14 14 13 14 16
5 7 5 4 4 5 9 11 14 12 12 11 7 8 9 12 7 3 4 8 12 17 19 20 21 21 23 25 27 30 32 23 19 23 24 21 16 14 9 7 10 13 15 14
7 7 4 6 7 8 9 16 16 14 12 8 15 13 11 6 3 4 8 13 16 18 19 20 19 21 23 25 29 30 27 20 22 22 17 19 15 12 7 8 12 12 11 9
Wind_Direction
16 56 184 213 186 207 223 74 115 89 111 164 99 128 89 192 124 111 111 105 107 103 108 109 106 108 113 123 141 147 147 140 157 178 192 177 164 179 218 226 250 268 279 290
24 158 223 293 40 59 78 95 24 14 16 77 68 73 24 40 101 126 121 115 114 113 107 104 104 113 112 103 104 114 120 137 155 171 158 189 175 331 323 294 285 296 301 305
157 205 350 90 41 64 53 96 84 176 330 5 101 13 54 58 96 106 115 121 118 116 110 110 111 106 111 116 93 76 66 65 61 47 340 273 280 285 281 286 294 306 312 310
109 4 95 86 70 95 80 168 154 100 79 168 82 157 25 103 83 93 122 123 122 120 117 114 112 109 96 75 49 24 4 352 343 330 319 312 314 320 322 317 313 308 310 313
232 83 72 69 306 81 200 306 82 88 77 70 359 89 137 143 121 130 132 135 132 129 119 113 112 105 84 70 18 349 337 332 327 319 321 325 321 315 307 303 302 306 312 318
106 128 80 212 277 150 324 4 37 56 69 49 303 129 181 185 172 146 133 139 138 126 109 97 94 82 66 40 5 338 290 294 302 308 307 304 303 301 300 303 308 309 314 321
42 19 334 20 32 16 44 54 9 25 18 204 308 50 313 294 132 135 136 139 140 133 128 145 153 147 146 145 178 314 313 311 304 305 305 303 301 303 307 312 312 316 320 325
127 348 359 334 90 196 354 113 142 154 167 265 358 81 356 106 112 119 118 119 131 146 155 155 166 167 159 148 120 330 319 314 310 307 305 305 309 311 318 321 324 322 322 323
130 154 303 47 336 115 316 54 158 105 10 68 256 55 54 133 142 145 117 246 186 143 143 127 130 129 117 79 10 336 313 302 300 297 297 302 314 319 319 321 320 323 317 312
171 113 238 291 24 14 104 167 46 8 93 110 336 162 211 176 143 90 112 125 119 127 126 123 117 101 53 8 344 333 322 317 306 305 314 320 326 321 315 317 316 319 309 300
75 95 284 50 27 191 13 30 59 105 107 156 149 262 267 186 121 112 105 121 128 126 118 110 109 87 6 344 336 332 325 315 321 324 330 329 324 318 314 310 308 304 297 298
24 117 89 170 280 270 131 117 104 108 208 58 136 271 238 135 138 145 144 139 132 126 127 123 93 350 341 349 355 353 338 330 331 333 330 325 318 316 316 314 310 301 298 294
4 47 67 353 348 345 112 137 93 100 78 190 129 262 212 109 102 137 130 126 126 128 125 86 327 343 347 351 341 336 330 332 331 327 329 325 326 321 318 316 305 301 299 294
50 91 149 179 196 180 148 96 135 112 118 188 212 235 171 117 109 107 101 120 130 132 69 357 345 349 353 352 337 329 322 314 313 311 309 309 322 325 315 316 315 309 305 292
83 117 79 51 24 35 170 147 279 198 188 161 252 213 150 134 127 121 121 136 135 77 6 355 354 350 341 336 328 312 308 309 311 317 323 328 329 328 331 335 325 320 308 285
19 189 53 53 15 19 306 297 257 225 218 175 137 103 146 130 112 129 143 142 99 34 3 16 15 352 339 322 315 313 314 320 326 326 329 328 327 331 331 329 324 320 302 284
80 113 81 255 7 358 338 214 205 165 75 211 220 182 144 148 137 151 146 134 92 354 11 3 358 346 333 336 329 325 330 332 328 327 324 326 327 327 328 329 326 315 304 254
115 88 74 201 29 19 252 307 195 144 69 114 107 138 153 162 155 151 145 114 329 60 11 358 349 343 341 330 327 330 335 327 323 325 329 326 326 329 331 337 337 337 325 342
90 116 91 139 194 300 292 195 155 165 224 180 150 158 147 155 149 169 131 8 68 355 354 349 336 333 329 329 333 337 330 323 324 325 324 326 328 331 334 345 13 23 355 325
68 78 114 154 141 214 240 210 127 88 281 183 173 172 168 159 132 240 181 143 321 349 329 322 325 327 326 329 325 327 325 319 321 324 326 328 329 332 332 324 308 320 312 305
53 3 153 148 218 287 239 194 128 101 238 175 182 180 175 190 215 173 217 205 323 322 327 326 325 326 328 324 325 320 316 320 325 324 329 330 328 327 327 323 334 329 316 298
168 156 195 108 88 280 188 159 170 198 157 184 187 185 193 190 179 197 144 141 8 332 320 321 323 326 328 322 318 321 323 324 326 330 334 330 329 324 324 327 322 322 312 311
229 189 182 184 212 245 189 203 208 201 188 191 191 186 194 189 177 163 163 182 318 318 322 322 324 327 324 320 322 320 323 326 326 330 332 329 324 314 314 314 311 311 312 320
249 166 201 106 240 231 233 222 208 207 216 185 179 171 163 182 178 157 180 303 309 317 322 323 323 323 324 324 321 319 321 322 321 323 327 325 316 306 301 305 308 308 315 326
215 154 198 255 283 84 184 210 206 188 171 162 160 169 171 181 170 208 288 308 317 321 321 321 320 321 321 320 318 316 318 316 314 317 322 324 321 313 311 312 313 317 321 328
199 206 171 224 220 245 234 202 188 180 179 187 164 160 153 185 199 285 311 317 319 319 318 317 317 318 321 320 317 316 321 315 308 311 309 322 321 325 300 300 303 302 312 330